Tracking 24122 objects as of 7-Dec-2021
HD Live streaming from Space Station
objects crossing your sky now

PEGASUS DEB

Track PEGASUS DEB now!
10-day predictions


NORAD ID: 24165
Int'l Code: 1994-029HQ
Perigee: 566.5 km
Apogee: 944.7 km
Inclination: 82.2 °
Period: 99.8 minutes
Semi major axis: 7126 km
RCS: 0.0387 m2 (small)
Launch date: May 19, 1994
Source: United States (US)
Launch site: AIR FORCE WESTERN TEST RANGE (AFWTR)

Note: This is SATELLITE DEBRIS
aabbcc
Your satellite tracking list
Your tracking list is empty




NASA's NSSDC Master Catalog

Two Line Element Set (TLE):
1 24165U 94029HQ  21340.34841120  .00001617  00000-0  31121-3 0  9991
2 24165  82.1829 290.3392 0265371 262.9579  94.1369 14.43037142317453
Source of the keplerian elements: AFSPC